Flag for Germany Weather past 2 weeks in Siegburg, North Rhine-Westphalia, Germany

Now
46 °F

Overcast.


Feels Like: 42 °F
Forecast: 31 / 54 °F
Wind: 9 mph from West

Location: Bonn-Hangelar

Current Time: Mar 27, 2015 at 6:39:25 PM

Latest Report: Mar 27, 2015 at 6:00 PM


Visibility: 28 mi

Pressure: 30.16 "Hg

Humidity: 66%

Dew point: 35 °F

Location of SiegburgLocation

Historic Weather in Siegburg — Graph

°F

Siegburg temperature yesterday

Maximum temperature yesterday: 45 °F (at 1:00 PM)
Minimum temperature yesterday: 37 °F (at 6:00 AM)
Average temperature yesterday: 40 °F

Past Weeks' High & Low Weather Summary

 TemperatureHumidityPressure
High60 °F (Mar 17, 1:00 PM)100% (Mar 16, 7:00 AM)30.40 "Hg (Mar 16, 7:00 AM)
Low32 °F (Mar 16, 4:00 AM)46% (Mar 17, 1:00 PM)29.68 "Hg (Mar 25, 4:00 AM)
Average41 °F84%30.14 "Hg
* Reported Mar 12 5:00 PM — Mar 27 5:00 PM, Siegburg, Weather by CustomWeather, © 2015

Note: Actual official high and low records may vary slightly from our data, if they occured in-between our weather recording intervals... More about our weather records

Advertising

Siegburg weather history for previous 24 hours

 ConditionsComfort  
Time TempWeatherWind HumidityBarometerVisibility
5:00 PM
Fri, Mar 27
48 °FPartly sunny.9 mph68%30.15 "Hg19 mi
4:00 PM46 °FOvercast.8 mph70%30.14 "Hg19 mi
3:00 PM47 °FOvercast.10 mph72%30.12 "Hg16 mi
2:00 PM46 °FOvercast.10 mph73%30.11 "Hg16 mi
1:00 PM46 °FPartly sunny.10 mph73%30.10 "Hg16 mi
12:00 PM45 °FPartly sunny.12 mph78%30.09 "Hg16 mi
11:00 AM43 °FOvercast.12 mph84%30.08 "Hg11 mi
10:00 AM41 °FPartly sunny.10 mph88%30.06 "Hg12 mi
9:00 AM40 °FOvercast.10 mph89%30.03 "Hg12 mi
8:00 AM39 °FOvercast.10 mph90%30.02 "Hg11 mi
7:00 AM38 °FOvercast.9 mph89%29.99 "Hg16 mi
6:00 AM38 °FPartly sunny.9 mph90%29.96 "Hg16 mi
5:00 AM37 °FClear.9 mph89%29.94 "Hg12 mi
4:00 AM38 °FPassing clouds.8 mph88%29.92 "Hg13 mi
3:00 AM38 °FClear.8 mph88%29.90 "Hg11 mi
2:00 AM40 °FPassing clouds.7 mph86%29.88 "Hg11 mi
1:00 AM42 °FOvercast.8 mph88%29.85 "Hg7 mi
12:00 AM43 °FFog.7 mph93%29.83 "Hg4 mi
11:00 PM
Thu, Mar 26
42 °FFog.7 mph96%29.81 "Hg4 mi
10:00 PM42 °FLow clouds.7 mph96%29.80 "Hg6 mi
9:00 PM40 °FLight freezing rain. Low clouds.9 mph95%29.78 "Hg4 mi
8:00 PM40 °FLight freezing rain. Low clouds.12 mph94%29.75 "Hg4 mi
7:00 PM39 °FLight rain. Low clouds.10 mph91%29.74 "Hg12 mi
6:00 PM40 °FLight rain. Low clouds.9 mph88%29.73 "Hg5 mi
Weather by CustomWeather, © 2015

See weather overviewHow to use our weather pages